Location: Rowland
(34.5359°N, 79.2929°W)
Time: 20:26:18
(UTC+00:00)

Transit 2A - Pass Details

Date: 08 October 2022
Orbit: 598 x 959 km, 66.7° (Epoch: 03 December)

Event Time Altitude Azimuth Distance (km) Brightness Sun altitude
Rises 02:40:46 0° 210° (SSW) 2,959 - -46.1°
Reaches altitude 10° 02:43:07 10° 212° (SSW) 2,012 - -46.5°
Maximum altitude 02:47:35 72° 297° (WNW) 642 - -47.3°
Drops below altitude 10° 02:51:54 10° 22° (NNE) 1,941 - -48.0°
Sets 02:54:08 0° 25° (NNE) 2,845 - -48.4°
